Location: Columbia
(38.9520°N, 92.3340°W)
Time: 02:23:42
(UTC-05:00)

Iridium 15 - Visible Passes

Search period start: 26 March 2017 00:00
Search period end: 05 April 2017 00:00
Orbit: 776 x 779 km, 86.4° (Epoch: 24 March)

Date Brightness Start Highest point End Pass type
(mag) Time Alt. Az. Time Alt. Az. Time Alt. Az.
26 Mar 8.2 03:25:09 10° NNE 03:28:13 23° ENE 03:28:13 23° ENE visible
26 Mar 7.1 05:05:26 10° NNW 05:08:39 29° NW 05:08:39 29° NW visible
27 Mar 8.8 02:53:06 10° NE 02:54:29 13° ENE 02:54:29 13° ENE visible
27 Mar 6.8 04:31:34 10° N 04:34:57 40° NNW 04:34:57 40° NNW visible
28 Mar 7.2 03:58:02 10° N 04:01:16 37° NNE 04:01:16 37° NNE visible
28 Mar 8.0 05:40:58 10° NW 05:41:42 12° WNW 05:41:42 12° WNW visible
29 Mar 7.9 03:24:50 10° NNE 03:27:36 26° NE 03:27:36 26° NE visible
29 Mar 7.6 05:05:57 10° NNW 05:08:04 19° NW 05:08:04 19° NW visible
30 Mar 8.6 02:52:09 10° NNE 02:53:58 16° NE 02:53:58 16° NE visible
30 Mar 7.4 04:31:50 10° NNW 04:34:25 27° NNW 04:34:25 27° NNW visible
31 Mar 7.4 03:58:06 10° N 04:00:48 32° N 04:00:48 32° N visible
01 Apr 7.8 03:24:42 10° N 03:27:13 27° NNE 03:27:13 27° NNE visible
01 Apr 8.1 05:06:46 10° NW 05:07:41 13° NW 05:07:41 13° NW visible
02 Apr 8.4 02:51:40 10° NNE 02:53:38 19° NE 02:53:38 19° NE visible
02 Apr 7.8 04:32:14 10° NNW 04:34:06 20° NW 04:34:06 20° NW visible
03 Apr 8.9 02:19:19 10° NE 02:20:04 12° NE 02:20:04 12° NE visible
03 Apr 7.6 03:58:17 10° N 04:00:31 25° NNW 04:00:31 25° NNW visible
04 Apr 7.8 03:24:42 10° N 03:26:59 27° N 03:26:59 27° N visible
